Hourly Weather Luena

Today, 15 May, Saturday

Time Temperature Precipitation Wind Pressure Humidity
00:00 +14°C° 0 mm 1 mps 648 mmHg 67%
01:00 +13°C° 0 mm 1 mps 648 mmHg 68%
02:00 +13°C° 0 mm 1 mps 647 mmHg 69%
03:00 +13°C° 0 mm 1 mps 647 mmHg 71%
04:00 +12°C° 0 mm 1 mps 647 mmHg 72%
05:00 +13°C° 0 mm 1 mps 648 mmHg 70%
06:00 +14°C° 0 mm 1 mps 648 mmHg 67%
07:00 +15°C° 0 mm 1 mps 649 mmHg 64%
08:00 +20°C° 0 mm 1 mps 650 mmHg 56%
09:00 +23°C° 0 mm 2 mps 651 mmHg 47%
10:00 +26°C° 0 mm 2 mps 651 mmHg 38%
11:00 +27°C° 0 mm 2 mps 651 mmHg 35%
12:00 +28°C° 0 mm 2 mps 650 mmHg 32%
13:00 +29°C° 0 mm 2 mps 650 mmHg 29%
14:00 +28°C° 0 mm 2 mps 649 mmHg 32%
15:00 +28°C° 0 mm 2 mps 649 mmHg 34%
16:00 +27°C° 0 mm 2 mps 649 mmHg 37%
17:00 +24°C° 0 mm 1 mps 649 mmHg 44%
18:00 +22°C° 0 mm 1 mps 648 mmHg 51%
19:00 +19°C° 0 mm 1 mps 648 mmHg 58%
20:00 +18°C° 0 mm 1 mps 648 mmHg 60%
21:00 +15°C° 0 mm 0 mps 648 mmHg 63%
22:00 +15°C° 0 mm 0 mps 648 mmHg 66%
23:00 +14°C° 0 mm 0 mps 648 mmHg 67%

Tomorrow, 16 May, Sunday

Time Temperature Precipitation Wind Pressure Humidity
00:00 +15°C° 0 mm 1 mps 648 mmHg 69%
01:00 +15°C° 0 mm 1 mps 648 mmHg 71%
02:00 +14°C° 0 mm 1 mps 647 mmHg 71%
03:00 +14°C° 0 mm 1 mps 647 mmHg 72%
04:00 +14°C° 0 mm 1 mps 647 mmHg 73%
05:00 +15°C° 0 mm 1 mps 648 mmHg 70%
06:00 +16°C° 0 mm 1 mps 649 mmHg 67%
07:00 +16°C° 0 mm 0 mps 649 mmHg 65%
08:00 +21°C° 0 mm 1 mps 650 mmHg 55%
09:00 +24°C° 0 mm 1 mps 651 mmHg 45%
10:00 +27°C° 0 mm 2 mps 651 mmHg 35%
11:00 +28°C° 0 mm 2 mps 651 mmHg 32%
12:00 +29°C° 0 mm 2 mps 650 mmHg 29%
13:00 +30°C° 0 mm 2 mps 650 mmHg 26%
14:00 +30°C° 0 mm 1 mps 649 mmHg 29%
15:00 +29°C° 0 mm 1 mps 649 mmHg 32%
16:00 +29°C° 0 mm 1 mps 649 mmHg 34%
17:00 +26°C° 0 mm 1 mps 648 mmHg 41%
18:00 +23°C° 0 mm 1 mps 648 mmHg 47%
19:00 +20°C° 0 mm 1 mps 648 mmHg 53%
20:00 +19°C° 0 mm 1 mps 648 mmHg 55%
21:00 +18°C° 0 mm 1 mps 648 mmHg 56%
22:00 +18°C° 0 mm 1 mps 648 mmHg 58%
23:00 +16°C° 0 mm 1 mps 648 mmHg 58%

Day after tomorrow, 17 May, Monday

Time Temperature Precipitation Wind Pressure Humidity
00:00 +16°C° 0 mm 1 mps 648 mmHg 59%
01:00 +16°C° 0 mm 1 mps 647 mmHg 60%
02:00 +15°C° 0 mm 1 mps 647 mmHg 61%
03:00 +15°C° 0 mm 1 mps 647 mmHg 62%
04:00 +15°C° 0 mm 1 mps 647 mmHg 63%
05:00 +15°C° 0 mm 1 mps 648 mmHg 62%
06:00 +16°C° 0 mm 1 mps 648 mmHg 61%
07:00 +16°C° 0 mm 1 mps 649 mmHg 60%
08:00 +21°C° 0 mm 1 mps 650 mmHg 51%
09:00 +24°C° 0 mm 2 mps 651 mmHg 42%
10:00 +27°C° 0 mm 3 mps 652 mmHg 33%
11:00 +28°C° 0 mm 2 mps 651 mmHg 30%
12:00 +29°C° 0 mm 2 mps 651 mmHg 27%
13:00 +30°C° 0 mm 2 mps 650 mmHg 24%
14:00 +29°C° 0 mm 2 mps 650 mmHg 28%
15:00 +29°C° 0 mm 2 mps 649 mmHg 31%
16:00 +28°C° 0 mm 2 mps 649 mmHg 35%
17:00 +25°C° 0 mm 1 mps 649 mmHg 40%
18:00 +22°C° 0 mm 1 mps 649 mmHg 46%
19:00 +19°C° 0 mm 1 mps 648 mmHg 51%
20:00 +19°C° 0 mm 1 mps 648 mmHg 53%
21:00 +18°C° 0 mm 1 mps 648 mmHg 54%
22:00 +16°C° 0 mm 1 mps 648 mmHg 55%
23:00 +16°C° 0 mm 1 mps 648 mmHg 56%

18 May, Tuesday

Time Temperature Precipitation Wind Pressure Humidity
00:00 +16°C° 0 mm 1 mps 648 mmHg 56%
01:00 +15°C° 0 mm 1 mps 648 mmHg 56%
02:00 +15°C° 0 mm 1 mps 648 mmHg 56%
03:00 +15°C° 0 mm 1 mps 648 mmHg 56%
04:00 +15°C° 0 mm 1 mps 648 mmHg 56%
05:00 +16°C° 0 mm 1 mps 648 mmHg 56%
06:00 +16°C° 0 mm 1 mps 649 mmHg 55%
07:00 +18°C° 0 mm 1 mps 650 mmHg 54%
08:00 +21°C° 0 mm 1 mps 650 mmHg 47%
09:00 +24°C° 0 mm 2 mps 651 mmHg 41%
10:00 +27°C° 0 mm 3 mps 652 mmHg 34%
11:00 +28°C° 0 mm 3 mps 652 mmHg 32%
12:00 +29°C° 0 mm 3 mps 651 mmHg 30%
13:00 +30°C° 0 mm 3 mps 651 mmHg 29%
14:00 +29°C° 0 mm 2 mps 650 mmHg 31%
15:00 +29°C° 0 mm 2 mps 650 mmHg 33%
16:00 +28°C° 0 mm 2 mps 650 mmHg 36%
17:00 +25°C° 0 mm 2 mps 649 mmHg 43%
18:00 +23°C° 0 mm 1 mps 649 mmHg 50%
19:00 +20°C° 0 mm 1 mps 649 mmHg 57%
20:00 +19°C° 0 mm 1 mps 649 mmHg 58%
21:00 +19°C° 0 mm 1 mps 649 mmHg 60%
22:00 +18°C° 0 mm 1 mps 649 mmHg 61%
23:00 +18°C° 0 mm 1 mps 649 mmHg 61%

19 May, Wednesday

Time Temperature Precipitation Wind Pressure Humidity
00:00 +16°C° 0 mm 1 mps 648 mmHg 61%
01:00 +16°C° 0 mm 1 mps 648 mmHg 60%
02:00 +16°C° 0 mm 1 mps 648 mmHg 60%
03:00 +15°C° 0 mm 1 mps 648 mmHg 60%
04:00 +15°C° 0 mm 1 mps 648 mmHg 60%
05:00 +15°C° 0 mm 1 mps 648 mmHg 58%
06:00 +16°C° 0 mm 1 mps 649 mmHg 57%
07:00 +18°C° 0 mm 1 mps 650 mmHg 56%
08:00 +20°C° 0 mm 2 mps 650 mmHg 49%
09:00 +24°C° 0 mm 2 mps 651 mmHg 42%
10:00 +27°C° 0 mm 3 mps 652 mmHg 35%
11:00 +28°C° 0 mm 3 mps 651 mmHg 33%
12:00 +29°C° 0 mm 2 mps 651 mmHg 31%
13:00 +30°C° 0 mm 2 mps 651 mmHg 29%
14:00 +29°C° 0 mm 2 mps 650 mmHg 31%
15:00 +29°C° 0 mm 2 mps 650 mmHg 33%
16:00 +28°C° 0 mm 1 mps 650 mmHg 35%
17:00 +26°C° 0 mm 1 mps 649 mmHg 42%
18:00 +23°C° 0 mm 1 mps 649 mmHg 48%
19:00 +20°C° 0 mm 1 mps 649 mmHg 54%
20:00 +20°C° 0 mm 1 mps 649 mmHg 56%
21:00 +19°C° 0 mm 1 mps 649 mmHg 57%
22:00 +18°C° 0 mm 1 mps 649 mmHg 58%
23:00 +18°C° 0 mm 1 mps 649 mmHg 60%

20 May, Thursday

Time Temperature Precipitation Wind Pressure Humidity
00:00 +16°C° 0 mm 1 mps 649 mmHg 61%
01:00 +16°C° 0 mm 1 mps 649 mmHg 63%
02:00 +16°C° 0 mm 1 mps 649 mmHg 63%
03:00 +15°C° 0 mm 1 mps 648 mmHg 63%
04:00 +15°C° 0 mm 1 mps 648 mmHg 64%
05:00 +16°C° 0 mm 1 mps 649 mmHg 62%
06:00 +16°C° 0 mm 1 mps 650 mmHg 60%
07:00 +18°C° 0 mm 1 mps 650 mmHg 58%
08:00 +21°C° 0 mm 1 mps 651 mmHg 50%
09:00 +24°C° 0 mm 2 mps 652 mmHg 41%
10:00 +27°C° 0 mm 2 mps 653 mmHg 33%
11:00 +28°C° 0 mm 2 mps 652 mmHg 31%
12:00 +30°C° 0 mm 2 mps 652 mmHg 28%
13:00 +31°C° 0 mm 2 mps 651 mmHg 26%
14:00 +30°C° 0 mm 1 mps 651 mmHg 28%
15:00 +30°C° 0 mm 1 mps 650 mmHg 30%
16:00 +29°C° 0 mm 1 mps 650 mmHg 32%
17:00 +26°C° 0 mm 1 mps 650 mmHg 38%
18:00 +23°C° 0 mm 1 mps 649 mmHg 45%
19:00 +20°C° 0 mm 1 mps 649 mmHg 51%
20:00 +20°C° 0 mm 1 mps 649 mmHg 52%
21:00 +19°C° 0 mm 1 mps 649 mmHg 53%
22:00 +18°C° 0 mm 1 mps 650 mmHg 54%
23:00 +16°C° 0 mm 1 mps 649 mmHg 55%
Show more

We Need Your Consent

Meteoprog and our Service Providers may store and access personal data such as cookies, device identifiers or other similar technologies on your device and process such data to personalise content and ads, as well as provide social media features and to analyse the traffic.

  • Store and/or access information on your device

    Cookies, device identifiers or other information can be stored or accessed on your device for the purposes indicated above.

  • Personalised ads and content, ad and content measurement, audience insights, and products development

    Ads and content can be personalised based on a profile. More data can be added to better personalise ads and content. Ad and content performance can be measured. Insights about the audience who saw the ads and content can be derived. Such data can be used to develop or improve user’s experience, systems and software.

By clicking ‘I Agree’ you will allow the use of indicated cookies, device identifiers, web beacons or other similar technologies. Your settings can be changed in the browser on your device.

For certain purposes, legitimate interests may be relied on, rather than consent. You can read more about this in our Privacy and Cookie Policy.